Regional Weather Roundup
Issued by NWS Newport/Morehead, NC

Current Version | Previous Version | Text Only | Print | Product List | Glossary On
Versions: 1 2 3 4 5 6 7 8 9 10 11 12 13 14 15 16 17 18 19 20 21 22 23 24 25 26 27 28 29 30 31 32 33 34 35 36 37 38 39 40 41 42 43 44 45 46 47 48 49 50
000
ASUS42 KMHX 262322
RWRMHX
WEATHER ROUNDUP FOR EASTERN NORTH CAROLINA
NATIONAL WEATHER SERVICE NEWPORT/MOREHEAD CITY NC
600 PM EST WED NOV 26 2014

NOTE: "FAIR" INDICATES FEW OR NO CLOUDS BELOW 12,000 FEET
WITH NO SIGNIFICANT WEATHER AND/OR OBSTRUCTIONS TO VISIBILITY

NCZ015>017-031-032-045>047-102-103-270000-
NORTH COAST

CITY           SKY/WX    TMP DP  RH WIND       PRES   REMARKS
EDENTON        CLOUDY    42  39  89 NW13      29.95R
ELIZABETH CITY CLOUDY    45  38  76 NW15G24   29.91R
KITTY HAWK     CLOUDY    45  44  95 W15G24    29.86R
MANTEO         CLOUDY    44  41  90 NW16G24   29.90R

$$

NCZ045>047-081-094-103-104-270000-
CENTRAL COAST

CITY           SKY/WX    TMP DP  RH WIND       PRES   REMARKS
FRISCO         CLOUDY    47  44  90 NW17G28   29.90R
SWANQUARTER      N/A     45 N/A N/A W12G25    29.91R

$$

NCZ095-097-098-100-101-270000-
SOUTHERN COAST

CITY           SKY/WX    TMP DP  RH WIND       PRES   REMARKS
BEAUFORT       CLOUDY    49  45  86 NW21      29.96R
CEDAR ISLAND     N/A     48 N/A N/A W25G33    29.97R
JACKSONVILLE   CLOUDY    48  43  82 NW15G21   30.00R
PINEY ISLAND   CLOUDY    50  43  77 W24G30    29.95R
WILMINGTON     CLOUDY    50  44  80 W13G23    30.02R


$$

NCZ011>013-027>030-043-044-078>080-089-090>093-098-270000-
COASTAL PLAIN

CITY           SKY/WX    TMP DP  RH WIND       PRES   REMARKS
AHOSKIE        CLOUDY    39  37  90 NW6       29.98R
CLINTON        MOCLDY    45  43  90 NW3       30.03R
ELIZABETHTOWN  MOCLDY    47  44  86 W5        30.04R
GOLDSBORO      CLOUDY    44  43  97 NW5       29.99R
GREENVILLE     MOCLDY    43  39  87 NW8       30.01R
HAVELOCK       CLOUDY    48  43  82 NW18G24   29.98R
KENANSVILLE    CLOUDY    45  41  86 W6        30.02R
KINSTON        MOCLDY    43  41  93 NW8       30.00R
NEW BERN       CLOUDY    48  42  80 NW10      29.99R
RICHLANDS      CLOUDY    46  39  76 W6        30.01R
ROCKY MOUNT    CLOUDY    42  38  85 NW6       30.01R
WASHINGTON     CLOUDY    42  39  87 NW7       29.98R
WHITEVILLE     CLOUDY    48  45  87 W5        30.04R

$$

AMZ130-135-150-152-154-156-158-170-250-252-270-ANZ085-086-088-633-658-670-270000-
MARINE OBSERVATIONS

STATION/POSITION TIME  TEMP    WIND        PRES    WAVE   SWELL
                       AIR SEA DIR/SP/G            HT/PER HT/PER
                 (UTC) (F)     (DEG/KT/KT) (MB)    (FT/S) (FT/S)
CHESAPEAKE LIGHT 2300   42     320/ 32/ 35 1011.6
64 E VA BEACH    2300   50 62  310/ 29/ 35 1007.4   11/ 8   8/ 8
DUCK             2300   44 56  310/ 21/ 28 1010.5
2 E DUCK         2300      58                N/A     7/ 9   2/11
10 NE DUCK       2300      59                N/A    10/ 8   2/11
OREGON INLET     2300   47 59  300/ 18/ 25 1011.2
13E OREGON INLT  2300      63                N/A    10/ 8   2/11
HATTERAS CG      2300   49 63  320/ 25/ 30 1012.4
DIAMOND BUOY     2300   51     300/ 21/ 27 1011.1   10/ 9   5/ 9
17 S OCRACOKE    NOT AVBL
CAPE LOOKOUT     2300   50     300/ 22/ 26 1014.2
BEAUFORT LAB     2300   48 59  320/ 11/ 14 1013.7
30 SE NEW RIVER  2300   53 66  310/ 21/ 27 1015.1    7/ 5
5 SE WRIGHTSVLE  2300   49 59  300/ 16/ 19 1015.8
225 S CAPE HAT   2218   70 73  280/ 23/ 27 1014.4   11/ 8
41 SE CHARLESTON 2300   59 74  290/ 17/ 21 1017.4    6/ 5   2/ 9

$$


USA.gov is the U.S. government's official web portal to all federal, state and local government web resources and services.